{"data":{"norad_id":58222,"epoch":"2026-09-20T03:11:42.702432Z","epoch_age_seconds":175341,"freshness":"STALE","line1":"1 58222U 23170S   26263.13313313 -.00000180  00000+0  29708-5 0  9999","line2":"2 58222  43.0001 176.3888 0001126 271.7900  88.2822 15.27579315160031","mean_motion":15.27579315,"eccentricity":0.0001126,"inclination_deg":43.0001,"raan_deg":176.3888,"arg_perigee_deg":271.79,"mean_anomaly_deg":88.2822,"bstar":2.9708e-6,"rev_number":16003,"period_min":94.266790984925,"perigee_km":482.27857739147,"apogee_km":483.82371696222,"semimajor_km":6861.1881471768,"source":"CELESTRAK","updated_at":"2026-09-21T09:00:33.834371Z"}}